Weather History for Ellensburg, WA

Change the Weather History Date:

Thursday, February 13, 2014

  Actual Average (KYKM) Record (KYKM)
Temperature  
Mean Temperature 41 °F 36 °F  
Max Temperature 50 °F 46 °F 63 °F (1971)
Min Temperature 32 °F 26 °F -2 °F (1949)
Degree Days  
Heating Degree Days 24 29  
Month to date heating degree days 394  
Since 1 July heating degree days 4112  
Cooling Degree Days 0 0  
Month to date cooling degree days 0  
Year to date cooling degree days 0  
Moisture  
Dew Point 31 °F    
Average Humidity 73    
Maximum Humidity 89    
Minimum Humidity 50    
Precipitation  
Precipitation 0.03 in 0.03 in 0.21 in (1962)
Month to date precipitation 0.38  
Year to date precipitation 1.52  
Snow  
Snow 0.00 in 0.10 in 3.10 in (1980)
Month to date snowfall 1.4  
Year to date snowfall 6.7  
Since 1 July snowfall 19.7  
Snow Depth -    
Sea Level Pressure  
Sea Level Pressure 29.94 in    
Wind  
Wind Speed 8 mph (NNW)    
Max Wind Speed 22 mph    
Max Gust Speed -    
Visibility 10 miles    
Events Rain    
T = Trace of Precipitation, MM = Missing Value Source: NWS Daily Summary

Daily Weather History Graph

Daily Weather History Graph

Search for Another Location

Airport:

Trip Planner

Search our weather history database for the weather conditions in past years. The results will help you decide how hot, cold, wet, or windy it might be!

Date:

Astronomy

Feb. 13, 2014 Rise Set
Actual Time 7:09 AM PST 5:23 PM PST
Civil Twilight 6:38 AM PST 5:55 PM PST
Nautical Twilight 6:02 AM PST 6:30 PM PST
Astronomical Twilight 5:27 AM PST 7:06 PM PST
Moon 4:37 PM PST (2/13) 6:06 AM PST (2/13)
Length of Visible Light 11h 16m
Length of Day
10h 13m
Waxing Gibbous, 99% of the Moon is Illuminated
Feb 13
Waxing Gibbous
Feb 14
Full
Feb 22
Last Quarter
Mar 1
New
Mar 8
First Quarter

Hourly Weather History & Observations

Time (PST) Temp. Windchill Dew Point Humidity Pressure Visibility Wind Dir Wind Speed Gust Speed Precip Events Conditions
12:53 AM 35.1 °F 31.0 °F 30.9 °F 85% 29.74 in 10.0 mi SSE 4.6 mph - 0.01 in Rain Light Rain
1:53 AM 35.1 °F 32.2 °F 32.0 °F 89% 29.75 in 7.0 mi East 3.5 mph - 0.00 in Rain Light Rain
2:53 AM 32.0 °F 25.6 °F 28.9 °F 88% 29.76 in 10.0 mi ENE 6.9 mph - 0.00 in   Partly Cloudy
3:53 AM 33.1 °F - 30.0 °F 89% 29.81 in 10.0 mi Calm Calm - N/A   Mostly Cloudy
4:53 AM 36.0 °F 29.6 °F 30.9 °F 82% 29.82 in 10.0 mi NW 8.1 mph - N/A   Clear
5:53 AM 34.0 °F - 28.9 °F 82% 29.85 in 10.0 mi Calm Calm - N/A   Clear
6:53 AM 32.0 °F 23.6 °F 28.0 °F 85% 29.88 in 10.0 mi NE 10.4 mph - N/A   Clear
7:53 AM 39.0 °F 32.8 °F 30.9 °F 73% 29.91 in 10.0 mi NW 9.2 mph - N/A   Overcast
8:53 AM 42.1 °F 37.1 °F 34.0 °F 73% 29.95 in 10.0 mi NW 8.1 mph - 0.02 in   Clear
9:53 AM 45.0 °F 38.5 °F 33.1 °F 63% 29.98 in 10.0 mi NW 13.8 mph - N/A   Clear
10:53 AM 46.0 °F 39.9 °F 35.1 °F 66% 30.01 in 10.0 mi NNW 13.8 mph - N/A   Clear
11:53 AM 48.0 °F - 33.1 °F 56% 30.02 in 10.0 mi NNW 16.1 mph - N/A   Clear
12:53 PM 48.0 °F - 33.1 °F 56% 30.03 in 10.0 mi NW 19.6 mph - N/A   Clear
1:53 PM 50.0 °F - 32.0 °F 50% 30.03 in 10.0 mi NNW 21.9 mph - N/A   Clear
2:53 PM 48.0 °F - 33.1 °F 56% 30.05 in 10.0 mi NNW 19.6 mph - N/A   Clear
3:53 PM 46.9 °F - 33.1 °F 59% 30.06 in 10.0 mi NW 13.8 mph - N/A   Clear
4:53 PM 39.9 °F 33.4 °F 30.9 °F 70% 30.08 in 10.0 mi NNW 10.4 mph - N/A   Clear
5:53 PM 39.0 °F 31.8 °F 30.9 °F 73% 30.04 in 10.0 mi NNW 11.5 mph - N/A   Clear
6:53 PM 37.9 °F 30.5 °F 30.0 °F 73% 30.01 in 10.0 mi NW 11.5 mph - N/A   Clear
7:53 PM 35.1 °F - 28.9 °F 78% 30.01 in 10.0 mi Calm Calm - N/A   Clear
8:53 PM 35.1 °F 29.3 °F 28.9 °F 78% 30.01 in 10.0 mi East 6.9 mph - N/A   Clear
9:53 PM 36.0 °F 32.1 °F 28.9 °F 76% 29.99 in 10.0 mi NNE 4.6 mph - N/A   Clear
10:53 PM 35.1 °F 31.0 °F 28.0 °F 76% 29.94 in 10.0 mi North 4.6 mph - N/A   Clear
11:53 PM 34.0 °F - 28.0 °F 79% 29.92 in 10.0 mi Calm Calm - N/A   Mostly Cloudy